This is the latest recevied weather packets stored in our database for station/object W3AJR. If no packets are shown the sender has not sent any weather packets the latest 10 day(s).
| Time | Temp. | Humidity | Pressure | Rain* | Wind** | Luminosity | Snow |
|---|---|---|---|---|---|---|---|
| 1778017256 | 27.78° C | 27% | 1008.9 hPa | 0 mm | - | 131 W/m² | - |
| 1778016954 | 27.22° C | 29% | 1008.8 hPa | 0 mm | - | 150 W/m² | - |
| 1778016650 | 27.78° C | 30% | 1009.1 hPa | 0 mm | - | 173 W/m² | - |
| 1778016347 | 27.22° C | 31% | 1009 hPa | 0 mm | - | 185 W/m² | - |
| 1778016044 | 27.22° C | 30% | 1009.1 hPa | 0 mm | - | 178 W/m² | - |
| 1778015741 | 26.67° C | 30% | 1009.1 hPa | 0 mm | - | 176 W/m² | - |
| 1778015438 | 26.67° C | 30% | 1009.2 hPa | 0 mm | - | 179 W/m² | - |
| 1778015134 | 27.22° C | 30% | 1009 hPa | 0 mm | - | 180 W/m² | - |
| 1778014832 | 27.22° C | 30% | 1009 hPa | 0 mm | - | 138 W/m² | - |
| 1778014530 | 27.22° C | 31% | 1008.9 hPa | 0 mm | - | 126 W/m² | - |
| 1778014226 | 27.78° C | 31% | 1008.8 hPa | 0 mm | - | 174 W/m² | - |
| 1778013924 | 28.33° C | 30% | 1008.8 hPa | 0 mm | - | 354 W/m² | - |
| 1778013621 | 28.33° C | 30% | 1008.9 hPa | 0 mm | - | 452 W/m² | - |
| 1778013318 | 28.33° C | 29% | 1009 hPa | 0 mm | - | 585 W/m² | - |
| 1778013015 | 27.78° C | 29% | 1008.9 hPa | 0 mm | - | 486 W/m² | - |
| 1778012711 | 28.33° C | 29% | 1009 hPa | 0 mm | - | 437 W/m² | - |
| 1778012407 | 27.78° C | 30% | 1009 hPa | 0 mm | - | 423 W/m² | - |
| 1778012104 | 27.78° C | 30% | 1009 hPa | 0 mm | - | 393 W/m² | - |
| 1778011801 | 28.33° C | 29% | 1009.2 hPa | 0 mm | - | 385 W/m² | - |
| 1778011499 | 28.33° C | 29% | 1008.9 hPa | 0 mm | - | 435 W/m² | - |
| 1778011195 | 28.33° C | 30% | 1008.8 hPa | 0 mm | - | 541 W/m² | - |
| 1778010892 | 27.78° C | 28% | 1009.3 hPa | 0 mm | - | 564 W/m² | - |
| 1778010589 | 28.33° C | 30% | 1009.2 hPa | 0 mm | - | 535 W/m² | - |
| 1778010287 | 28.33° C | 31% | 1008.8 hPa | 0 mm | - | 539 W/m² | - |
| 1778009987 | 28.33° C | 30% | 1009.1 hPa | 0 mm | - | 471 W/m² | - |
* Rain latest hour (hover to see other rain measurements)
** Current wind speed in m/s (hover to see current wind gust speed)